User: anonymous   Login
Location: Sungai Laei
(2.6000°N, 113.7167°E)
Time: 09:32:59
(UTC+00:00)
Language:

Cosmos 1190 Rocket - Orbit

View from above orbital plane
View from above orbital plane
View from above satellite
View from above satellite

Ground track
Ground track

The orbit data is extracted from the following two-line orbital elements,

1 11870U 80056B   22227.37376529  .00000137  00000-0  54816-4 0  9992
2 11870  74.0553 345.0946 0016408 192.6137 167.4608 14.37128965181730
Epoch (UTC): 15 August 2022 08:58:13
Eccentricity: 0.0016408
inclination: 74.0553°
perigee height: 756 km
apogee height: 780 km
right ascension of ascending node: 345.0946°
argument of perigee: 192.6137°
revolutions per day: 14.37128965
mean anomaly at epoch: 167.4608°
orbit number at epoch: 18173

The dashed part of the orbit path shows where the satellite is in the earth's shadow,  

DLR